Regional Weather Roundup
Issued by NWS Goodland, KS

Home | Current Version | Previous Version | Text Only | Print | Product List | Glossary Off
Versions: 1 2 3 4 5 6 7 8 9 10 11 12 13 14 15 16 17 18 19 20 21 22 23 24 25 26 27 28 29 30 31 32 33 34 35 36 37 38 39 40 41 42 43 44 45 46 47 48 49 50

000
ASUS43 KGLD 200208
RWRGLD

GOODLAND FORECAST AREA HOURLY WEATHER ROUNDUP
NATIONAL WEATHER SERVICE GOODLAND KS
700 PM MST FRI DEC 19 2014

...OFFICIAL OBSERVATIONS...

CITY           SKY/WX    TMP DP  RH WIND       PRES   REMARKS
GOODLAND KS    CLEAR     30  23  75 SW8       30.06R
HILL CITY KS   CLEAR     36  26  67 SW6       30.06S
IMPERIAL NEB   CLEAR     31  26  82 W10       30.03R
MCCOOK NEB     CLEAR     29  24  82 NW7       30.03R
AKRON CO       PTCLDY    29  19  66 S9        30.02S
BURLINGTON CO  CLEAR     27  22  81 SW7       30.05R
LIMON CO       PTCLDY    20  17  88 CALM      30.04R
$$

...UNOFFICIAL OBSERVATIONS...

CITY           SKY/WX    TMP DP  RH WIND       PRES   REMARKS
COLBY KS       CLEAR     32  30  93 SW7       30.07S
GOVE KS          N/A     35  32  89 MISG        N/A
NORTON KS      CLEAR     34  25  69 SW7       30.03F
SHARON SPRINGS   N/A     30  26  83 SW9         N/A
TRIBUNE KS     CLEAR     34  32  93 S9        30.08S
KIT CARSON CO    N/A     28  24  86 MISG        N/A
YUMA CO          N/A     25  19  78 CALM        N/A
$$


USA.gov is the U.S. government's official web portal to all federal, state and local government web resources and services.